Year,Month,Day,Hour,Minute,Value (Times are PST for temperature in C)
2020,08,13,00,00,13.50
2020,08,13,00,01,13.50
2020,08,13,00,02,13.50
2020,08,13,00,03,13.50
2020,08,13,00,04,13.50
2020,08,13,00,05,13.50
2020,08,13,00,06,13.60
2020,08,13,00,07,13.60
2020,08,13,00,08,13.60
2020,08,13,00,09,13.50
2020,08,13,00,10,13.60
2020,08,13,00,11,13.50
2020,08,13,00,12,13.50
2020,08,13,00,13,13.50
2020,08,13,00,14,13.50
2020,08,13,00,15,13.50
2020,08,13,00,16,13.50
2020,08,13,00,17,13.50
2020,08,13,00,18,13.50
2020,08,13,00,19,13.50
2020,08,13,00,20,13.50
2020,08,13,00,21,13.50
2020,08,13,00,22,13.50
2020,08,13,00,23,13.50
2020,08,13,00,24,13.50
2020,08,13,00,25,13.50
2020,08,13,00,26,13.50
2020,08,13,00,27,13.50
2020,08,13,00,28,13.50
2020,08,13,00,29,13.50
2020,08,13,00,30,13.50
2020,08,13,00,31,13.50
2020,08,13,00,32,13.50
2020,08,13,00,33,13.50
2020,08,13,00,34,13.50
2020,08,13,00,35,13.50
2020,08,13,00,36,13.50
2020,08,13,00,37,13.50
2020,08,13,00,38,13.50
2020,08,13,00,39,13.50
2020,08,13,00,40,13.50
2020,08,13,00,41,13.40
2020,08,13,00,42,13.40
2020,08,13,00,43,13.40
2020,08,13,00,44,13.40
2020,08,13,00,45,13.40
2020,08,13,00,46,13.40
2020,08,13,00,47,13.40
2020,08,13,00,48,13.40
2020,08,13,00,49,13.30
2020,08,13,00,50,13.30
2020,08,13,00,51,13.30
2020,08,13,00,52,13.30
2020,08,13,00,53,13.30
2020,08,13,00,54,13.30
2020,08,13,00,55,13.30
2020,08,13,00,56,13.30
2020,08,13,00,57,13.30
2020,08,13,00,58,13.20
2020,08,13,00,59,13.20
2020,08,13,01,00,13.20
2020,08,13,01,01,13.20
2020,08,13,01,02,13.20
2020,08,13,01,03,13.20
2020,08,13,01,04,13.20
2020,08,13,01,05,13.20
2020,08,13,01,06,13.20
2020,08,13,01,07,13.20
2020,08,13,01,08,13.20
2020,08,13,01,09,13.10
2020,08,13,01,10,13.10
2020,08,13,01,11,13.10
2020,08,13,01,12,13.20
2020,08,13,01,13,13.20
2020,08,13,01,14,13.20
2020,08,13,01,15,13.10
2020,08,13,01,16,13.10
2020,08,13,01,17,13.10
2020,08,13,01,18,13.10
2020,08,13,01,19,13.10
2020,08,13,01,20,13.10
2020,08,13,01,21,13.10
2020,08,13,01,22,13.00
2020,08,13,01,23,13.00
2020,08,13,01,24,13.00
2020,08,13,01,25,12.90
2020,08,13,01,26,12.90
2020,08,13,01,27,12.90
2020,08,13,01,28,12.90
2020,08,13,01,29,12.80
2020,08,13,01,30,12.80
2020,08,13,01,31,12.80
2020,08,13,01,32,12.80
2020,08,13,01,33,12.80
2020,08,13,01,34,12.80
2020,08,13,01,35,12.70
2020,08,13,01,36,12.70
2020,08,13,01,37,12.70
2020,08,13,01,38,12.70
2020,08,13,01,39,12.70
2020,08,13,01,40,12.70
2020,08,13,01,41,12.60
2020,08,13,01,42,12.60
2020,08,13,01,43,12.60
2020,08,13,01,44,12.60
2020,08,13,01,45,12.60
2020,08,13,01,46,12.60
2020,08,13,01,47,12.50
2020,08,13,01,48,12.50
2020,08,13,01,49,12.50
2020,08,13,01,50,12.40
2020,08,13,01,51,12.40
2020,08,13,01,52,12.40
2020,08,13,01,53,12.40
2020,08,13,01,54,12.40
2020,08,13,01,55,12.40
2020,08,13,01,56,12.30
2020,08,13,01,57,12.30
2020,08,13,01,58,12.30
2020,08,13,01,59,12.30
2020,08,13,02,00,12.30
2020,08,13,02,01,12.30
2020,08,13,02,02,12.30
2020,08,13,02,03,12.30
2020,08,13,02,04,12.30
2020,08,13,02,05,12.20
2020,08,13,02,06,12.20
2020,08,13,02,07,12.20
2020,08,13,02,08,12.20
2020,08,13,02,09,12.20
2020,08,13,02,10,12.20
2020,08,13,02,11,12.10
2020,08,13,02,12,12.10
2020,08,13,02,13,12.10
2020,08,13,02,14,12.10
2020,08,13,02,15,12.10
2020,08,13,02,16,12.10
2020,08,13,02,17,12.10
2020,08,13,02,18,12.10
2020,08,13,02,19,12.10
2020,08,13,02,20,12.10
2020,08,13,02,21,12.00
2020,08,13,02,22,12.00
2020,08,13,02,23,12.00
2020,08,13,02,24,12.00
2020,08,13,02,25,12.00
2020,08,13,02,26,12.00
2020,08,13,02,27,12.00
2020,08,13,02,28,12.00
2020,08,13,02,29,12.00
2020,08,13,02,30,12.00
2020,08,13,02,31,12.00
2020,08,13,02,32,12.00
2020,08,13,02,33,12.10
2020,08,13,02,34,12.10
2020,08,13,02,35,12.10
2020,08,13,02,36,12.10
2020,08,13,02,37,12.20
2020,08,13,02,38,12.20
2020,08,13,02,39,12.20
2020,08,13,02,40,12.20
2020,08,13,02,41,12.20
2020,08,13,02,42,12.20
2020,08,13,02,43,12.20
2020,08,13,02,44,12.20
2020,08,13,02,45,12.20
2020,08,13,02,46,12.20
2020,08,13,02,47,12.20
2020,08,13,02,48,12.20
2020,08,13,02,49,12.20
2020,08,13,02,50,12.20
2020,08,13,02,51,12.20
2020,08,13,02,52,12.20
2020,08,13,02,53,12.20
2020,08,13,02,54,12.20
2020,08,13,02,55,12.20
2020,08,13,02,56,12.20
2020,08,13,02,57,12.20
2020,08,13,02,58,12.20
2020,08,13,02,59,12.20
2020,08,13,03,00,12.20
2020,08,13,03,01,12.20
2020,08,13,03,02,12.20
2020,08,13,03,03,12.20
2020,08,13,03,04,12.10
2020,08,13,03,05,12.10
2020,08,13,03,06,12.10
2020,08,13,03,07,12.10
2020,08,13,03,08,12.10
2020,08,13,03,09,12.10
2020,08,13,03,10,12.10
2020,08,13,03,11,12.10
2020,08,13,03,12,12.10
2020,08,13,03,13,12.10
2020,08,13,03,14,12.10
2020,08,13,03,15,12.10
2020,08,13,03,16,12.10
2020,08,13,03,17,12.10
2020,08,13,03,18,12.00
2020,08,13,03,19,12.00
2020,08,13,03,20,12.00
2020,08,13,03,21,12.00
2020,08,13,03,22,12.00
2020,08,13,03,23,11.90
2020,08,13,03,24,11.90
2020,08,13,03,25,11.90
2020,08,13,03,26,11.90
2020,08,13,03,27,11.90
2020,08,13,03,28,11.90
2020,08,13,03,29,11.90
2020,08,13,03,30,11.90
2020,08,13,03,31,11.90
2020,08,13,03,32,11.80
2020,08,13,03,33,11.80
2020,08,13,03,34,11.80
2020,08,13,03,35,11.80
2020,08,13,03,36,11.80
2020,08,13,03,37,11.80
2020,08,13,03,38,11.80
2020,08,13,03,39,11.80
2020,08,13,03,40,11.80
2020,08,13,03,41,11.80
2020,08,13,03,42,11.70
2020,08,13,03,43,11.70
2020,08,13,03,44,11.70
2020,08,13,03,45,11.70
2020,08,13,03,46,11.70
2020,08,13,03,47,11.70
2020,08,13,03,48,11.70
2020,08,13,03,49,11.70
2020,08,13,03,50,11.70
2020,08,13,03,51,11.70
2020,08,13,03,52,11.70
2020,08,13,03,53,11.70
2020,08,13,03,54,11.70
2020,08,13,03,55,11.70
2020,08,13,03,56,11.70
2020,08,13,03,57,11.70
2020,08,13,03,58,11.70
2020,08,13,03,59,11.70
2020,08,13,04,00,11.70
2020,08,13,04,01,11.70
2020,08,13,04,02,11.70
2020,08,13,04,03,11.70
2020,08,13,04,04,11.70
2020,08,13,04,05,11.70
2020,08,13,04,06,11.70
2020,08,13,04,07,11.70
2020,08,13,04,08,11.70
2020,08,13,04,09,11.70
2020,08,13,04,10,11.60
2020,08,13,04,11,11.60
2020,08,13,04,12,11.60
2020,08,13,04,13,11.60
2020,08,13,04,14,11.60
2020,08,13,04,15,11.60
2020,08,13,04,16,11.60
2020,08,13,04,17,11.60
2020,08,13,04,18,11.60
2020,08,13,04,19,11.60
2020,08,13,04,20,11.50
2020,08,13,04,21,11.50
2020,08,13,04,22,11.50
2020,08,13,04,23,11.50
2020,08,13,04,24,11.50
2020,08,13,04,25,11.50
2020,08,13,04,26,11.50
2020,08,13,04,27,11.40
2020,08,13,04,28,11.40
2020,08,13,04,29,11.40
2020,08,13,04,30,11.40
2020,08,13,04,31,11.40
2020,08,13,04,32,11.40
2020,08,13,04,33,11.40
2020,08,13,04,34,11.40
2020,08,13,04,35,11.40
2020,08,13,04,36,11.40
2020,08,13,04,37,11.40
2020,08,13,04,38,11.40
2020,08,13,04,39,11.40
2020,08,13,04,40,11.40
2020,08,13,04,41,11.40
2020,08,13,04,42,11.40
2020,08,13,04,43,11.40
2020,08,13,04,44,11.40
2020,08,13,04,45,11.40
2020,08,13,04,46,11.40
2020,08,13,04,47,11.40
2020,08,13,04,48,11.40
2020,08,13,04,49,11.40
2020,08,13,04,50,11.30
2020,08,13,04,51,11.30
2020,08,13,04,52,11.30
2020,08,13,04,53,11.30
2020,08,13,04,54,11.30
2020,08,13,04,55,11.30
2020,08,13,04,56,11.30
2020,08,13,04,57,11.20
2020,08,13,04,58,11.20
2020,08,13,04,59,11.20
2020,08,13,05,00,11.20
2020,08,13,05,01,11.10
2020,08,13,05,02,11.10
2020,08,13,05,03,11.10
2020,08,13,05,04,11.10
2020,08,13,05,05,11.00
2020,08,13,05,06,11.00
2020,08,13,05,07,11.00
2020,08,13,05,08,11.00
2020,08,13,05,09,11.00
2020,08,13,05,10,11.00
2020,08,13,05,11,10.90
2020,08,13,05,12,10.90
2020,08,13,05,13,10.90
2020,08,13,05,14,10.80
2020,08,13,05,15,10.80
2020,08,13,05,16,10.80
2020,08,13,05,17,10.70
2020,08,13,05,18,10.70
2020,08,13,05,19,10.70
2020,08,13,05,20,10.70
2020,08,13,05,21,10.60
2020,08,13,05,22,10.60
2020,08,13,05,23,10.60
2020,08,13,05,24,10.60
2020,08,13,05,25,10.60
2020,08,13,05,26,10.60
2020,08,13,05,27,10.60
2020,08,13,05,28,10.60
2020,08,13,05,29,10.50
2020,08,13,05,30,10.50
2020,08,13,05,31,10.40
2020,08,13,05,32,10.40
2020,08,13,05,33,10.40
2020,08,13,05,34,10.30
2020,08,13,05,35,10.30
2020,08,13,05,36,10.30
2020,08,13,05,37,10.20
2020,08,13,05,38,10.20
2020,08,13,05,39,10.20
2020,08,13,05,40,10.20
2020,08,13,05,41,10.20
2020,08,13,05,42,10.20
2020,08,13,05,43,10.20
2020,08,13,05,44,10.20
2020,08,13,05,45,10.20
2020,08,13,05,46,10.20
2020,08,13,05,47,10.20
2020,08,13,05,48,10.20
2020,08,13,05,49,10.30
2020,08,13,05,50,10.30
2020,08,13,05,51,10.30
2020,08,13,05,52,10.30
2020,08,13,05,53,10.30
2020,08,13,05,54,10.30
2020,08,13,05,55,10.30
2020,08,13,05,56,10.30
2020,08,13,05,57,10.30
2020,08,13,05,58,10.30
2020,08,13,05,59,10.30
2020,08,13,06,00,10.30
2020,08,13,06,01,10.30
2020,08,13,06,02,10.30
2020,08,13,06,03,10.20
2020,08,13,06,04,10.20
2020,08,13,06,05,10.20
2020,08,13,06,06,10.20
2020,08,13,06,07,10.20
2020,08,13,06,08,10.20
2020,08,13,06,09,10.20
2020,08,13,06,10,10.20
2020,08,13,06,11,10.10
2020,08,13,06,12,10.20
2020,08,13,06,13,10.20
2020,08,13,06,14,10.20
2020,08,13,06,15,10.20
2020,08,13,06,16,10.10
2020,08,13,06,17,10.20
2020,08,13,06,18,10.20
2020,08,13,06,19,10.20
2020,08,13,06,20,10.20
2020,08,13,06,21,10.20
2020,08,13,06,22,10.20
2020,08,13,06,23,10.20
2020,08,13,06,24,10.20
2020,08,13,06,25,10.20
2020,08,13,06,26,10.20
2020,08,13,06,27,10.20
2020,08,13,06,28,10.20
2020,08,13,06,29,10.20
2020,08,13,06,30,10.20
2020,08,13,06,31,10.20
2020,08,13,06,32,10.20
2020,08,13,06,33,10.20
2020,08,13,06,34,10.20
2020,08,13,06,35,10.20
2020,08,13,06,36,10.20
2020,08,13,06,37,10.10
2020,08,13,06,38,10.10
2020,08,13,06,39,10.10
2020,08,13,06,40,10.10
2020,08,13,06,41,10.10
2020,08,13,06,42,10.10
2020,08,13,06,43,10.10
2020,08,13,06,44,10.10
2020,08,13,06,45,10.10
2020,08,13,06,46,10.10
2020,08,13,06,47,10.10
2020,08,13,06,48,10.20
2020,08,13,06,49,10.20
2020,08,13,06,50,10.20
2020,08,13,06,51,10.20
2020,08,13,06,52,10.20
2020,08,13,06,53,10.10
2020,08,13,06,54,10.10
2020,08,13,06,55,10.10
2020,08,13,06,56,10.10
2020,08,13,06,57,10.10
2020,08,13,06,58,10.10
2020,08,13,06,59,10.10
2020,08,13,07,00,10.10
2020,08,13,07,01,10.10
2020,08,13,07,02,10.10
2020,08,13,07,03,10.10
2020,08,13,07,04,10.10
2020,08,13,07,05,10.10
2020,08,13,07,06,10.10
2020,08,13,07,07,10.10
2020,08,13,07,08,10.10
2020,08,13,07,09,10.10
2020,08,13,07,10,10.10
2020,08,13,07,11,10.10
2020,08,13,07,12,10.10
2020,08,13,07,13,10.20
2020,08,13,07,14,10.20
2020,08,13,07,15,10.20
2020,08,13,07,16,10.20
2020,08,13,07,17,10.20
2020,08,13,07,18,10.30
2020,08,13,07,19,10.30
2020,08,13,07,20,10.30
2020,08,13,07,21,10.30
2020,08,13,07,22,10.30
2020,08,13,07,23,10.40
2020,08,13,07,24,10.40
2020,08,13,07,25,10.40
2020,08,13,07,26,10.50
2020,08,13,07,27,10.50
2020,08,13,07,28,10.50
2020,08,13,07,29,10.60
2020,08,13,07,30,10.70
2020,08,13,07,31,10.70
2020,08,13,07,32,10.80
2020,08,13,07,33,10.90
2020,08,13,07,34,11.00
2020,08,13,07,35,11.00
2020,08,13,07,36,11.10
2020,08,13,07,37,11.20
2020,08,13,07,38,11.20
2020,08,13,07,39,11.30
2020,08,13,07,40,11.30
2020,08,13,07,41,11.30
2020,08,13,07,42,11.40
2020,08,13,07,43,11.40
2020,08,13,07,44,11.40
2020,08,13,07,45,11.40
2020,08,13,07,46,11.50
2020,08,13,07,47,11.50
2020,08,13,07,48,11.60
2020,08,13,07,49,11.70
2020,08,13,07,50,11.70
2020,08,13,07,51,11.70
2020,08,13,07,52,11.80
2020,08,13,07,53,11.80
2020,08,13,07,54,11.90
2020,08,13,07,55,11.90
2020,08,13,07,56,12.00
2020,08,13,07,57,12.00
2020,08,13,07,58,12.10
2020,08,13,07,59,12.10
2020,08,13,08,00,12.10
2020,08,13,08,01,12.20
2020,08,13,08,02,12.20
2020,08,13,08,03,12.20
2020,08,13,08,04,12.30
2020,08,13,08,05,12.30
2020,08,13,08,06,12.30
2020,08,13,08,07,12.40
2020,08,13,08,08,12.40
2020,08,13,08,09,12.40
2020,08,13,08,10,12.40
2020,08,13,08,11,12.50
2020,08,13,08,12,12.50
2020,08,13,08,13,12.50
2020,08,13,08,14,12.60
2020,08,13,08,15,12.60
2020,08,13,08,16,12.60
2020,08,13,08,17,12.60
2020,08,13,08,18,12.70
2020,08,13,08,19,12.70
2020,08,13,08,20,12.70
2020,08,13,08,21,12.70
2020,08,13,08,22,12.80
2020,08,13,08,23,12.80
2020,08,13,08,24,12.80
2020,08,13,08,25,12.80
2020,08,13,08,26,12.90
2020,08,13,08,27,12.90
2020,08,13,08,28,12.90
2020,08,13,08,29,13.00
2020,08,13,08,30,13.00
2020,08,13,08,31,13.10
2020,08,13,08,32,13.10
2020,08,13,08,33,13.20
2020,08,13,08,34,13.20
2020,08,13,08,35,13.20
2020,08,13,08,36,13.30
2020,08,13,08,37,13.30
2020,08,13,08,38,13.40
2020,08,13,08,39,13.50
2020,08,13,08,40,13.50
2020,08,13,08,41,13.60
2020,08,13,08,42,13.70
2020,08,13,08,43,13.70
2020,08,13,08,44,13.70
2020,08,13,08,45,13.70
2020,08,13,08,46,13.70
2020,08,13,08,47,13.80
2020,08,13,08,48,13.80
2020,08,13,08,49,13.70
2020,08,13,08,50,13.70
2020,08,13,08,51,13.70
2020,08,13,08,52,13.60
2020,08,13,08,53,13.60
2020,08,13,08,54,13.50
2020,08,13,08,55,13.50
2020,08,13,08,56,13.50
2020,08,13,08,57,13.50
2020,08,13,08,58,13.50
2020,08,13,08,59,13.60
2020,08,13,09,00,13.60
2020,08,13,09,01,13.60
2020,08,13,09,02,13.60
2020,08,13,09,03,13.60
2020,08,13,09,04,13.60
2020,08,13,09,05,13.70
2020,08,13,09,06,13.70
2020,08,13,09,07,13.80
2020,08,13,09,08,13.80
2020,08,13,09,09,13.80
2020,08,13,09,10,13.80
2020,08,13,09,11,13.90
2020,08,13,09,12,13.90
2020,08,13,09,13,13.90
2020,08,13,09,14,14.00
2020,08,13,09,15,14.00
2020,08,13,09,16,14.00
2020,08,13,09,17,14.00
2020,08,13,09,18,14.00
2020,08,13,09,19,14.10
2020,08,13,09,20,14.10
2020,08,13,09,21,14.10
2020,08,13,09,22,14.10
2020,08,13,09,23,14.10
2020,08,13,09,24,14.20
2020,08,13,09,25,14.20
2020,08,13,09,26,14.20
2020,08,13,09,27,14.20
2020,08,13,09,28,14.20
2020,08,13,09,29,14.20
2020,08,13,09,30,14.20
2020,08,13,09,31,14.30
2020,08,13,09,32,14.30
2020,08,13,09,33,14.30
2020,08,13,09,34,14.30
2020,08,13,09,35,14.30
2020,08,13,09,36,14.30
2020,08,13,09,37,14.30
2020,08,13,09,38,14.30
2020,08,13,09,39,14.30
2020,08,13,09,40,14.30
2020,08,13,09,41,14.30
2020,08,13,09,42,14.30
2020,08,13,09,43,14.30
2020,08,13,09,44,14.30
2020,08,13,09,45,14.30
2020,08,13,09,46,14.50
2020,08,13,09,47,14.50
2020,08,13,09,48,14.60
2020,08,13,09,49,14.60
2020,08,13,09,50,14.60
2020,08,13,09,51,14.60
2020,08,13,09,52,14.60
2020,08,13,09,53,14.60
2020,08,13,09,54,14.60
2020,08,13,09,55,14.60
2020,08,13,09,56,14.60
2020,08,13,09,57,14.70
2020,08,13,09,58,14.70
2020,08,13,09,59,14.70
2020,08,13,10,00,14.80
2020,08,13,10,01,14.80
2020,08,13,10,02,14.90
2020,08,13,10,03,14.90
2020,08,13,10,04,14.90
2020,08,13,10,05,14.90
2020,08,13,10,06,14.90
2020,08,13,10,07,14.90
2020,08,13,10,08,14.90
2020,08,13,10,09,14.90
2020,08,13,10,10,15.00
2020,08,13,10,11,15.00
2020,08,13,10,12,15.10
2020,08,13,10,13,15.20
2020,08,13,10,14,15.20
2020,08,13,10,15,15.30
2020,08,13,10,16,15.30
2020,08,13,10,17,15.30
2020,08,13,10,18,15.40
2020,08,13,10,19,15.50
2020,08,13,10,20,15.50
2020,08,13,10,21,15.50
2020,08,13,10,22,15.50
2020,08,13,10,23,15.60
2020,08,13,10,24,15.60
2020,08,13,10,25,15.60
2020,08,13,10,26,15.60
2020,08,13,10,27,15.60
2020,08,13,10,28,15.60
2020,08,13,10,29,15.70
2020,08,13,10,30,15.70
2020,08,13,10,31,15.70
2020,08,13,10,32,15.70
2020,08,13,10,33,15.70
2020,08,13,10,34,15.70
2020,08,13,10,35,15.80
2020,08,13,10,36,15.70
2020,08,13,10,37,15.70
2020,08,13,10,38,15.80
2020,08,13,10,39,15.80
2020,08,13,10,40,15.80
2020,08,13,10,41,15.80
2020,08,13,10,42,15.80
2020,08,13,10,43,15.80
2020,08,13,10,44,15.80
2020,08,13,10,45,15.80
2020,08,13,10,46,15.80
2020,08,13,10,47,15.80
2020,08,13,10,48,15.80
2020,08,13,10,49,15.80
2020,08,13,10,50,15.80
2020,08,13,10,51,15.80
2020,08,13,10,52,15.70
2020,08,13,10,53,15.70
2020,08,13,10,54,15.70
2020,08,13,10,55,15.70
2020,08,13,10,56,15.70
2020,08,13,10,57,15.80
2020,08,13,10,58,15.80
2020,08,13,10,59,15.90
2020,08,13,11,00,15.90
2020,08,13,11,01,15.90
2020,08,13,11,02,15.90
2020,08,13,11,03,16.00
2020,08,13,11,04,16.00
2020,08,13,11,05,16.10
2020,08,13,11,06,16.10
2020,08,13,11,07,16.10
2020,08,13,11,08,16.10
2020,08,13,11,09,16.10
2020,08,13,11,10,16.10
2020,08,13,11,11,16.10
2020,08,13,11,12,16.10
2020,08,13,11,13,16.00
2020,08,13,11,14,16.10
2020,08,13,11,15,16.10
2020,08,13,11,16,16.10
2020,08,13,11,17,16.10
2020,08,13,11,18,16.10
2020,08,13,11,19,16.20
2020,08,13,11,20,16.20
2020,08,13,11,21,16.20
2020,08,13,11,22,16.20
2020,08,13,11,23,16.20
2020,08,13,11,24,16.20
2020,08,13,11,25,16.20
2020,08,13,11,26,16.20
2020,08,13,11,27,16.20
2020,08,13,11,28,16.20
2020,08,13,11,29,16.20
2020,08,13,11,30,16.20
2020,08,13,11,31,16.20
2020,08,13,11,32,16.20
2020,08,13,11,33,16.20
2020,08,13,11,34,16.20
2020,08,13,11,35,16.20
2020,08,13,11,36,16.20
2020,08,13,11,37,16.20
2020,08,13,11,38,16.20
2020,08,13,11,39,16.20
2020,08,13,11,40,16.20
2020,08,13,11,41,16.20
2020,08,13,11,42,16.20
2020,08,13,11,43,16.10
2020,08,13,11,44,16.10
2020,08,13,11,45,16.10
2020,08,13,11,46,16.20
2020,08,13,11,47,16.20
2020,08,13,11,48,16.20
2020,08,13,11,49,16.10
2020,08,13,11,50,16.10
2020,08,13,11,51,16.20
2020,08,13,11,52,16.20
2020,08,13,11,53,16.30
2020,08,13,11,54,16.30
2020,08,13,11,55,16.30
2020,08,13,11,56,16.30
2020,08,13,11,57,16.40
2020,08,13,11,58,16.30
2020,08,13,11,59,16.30
2020,08,13,12,00,16.30
2020,08,13,12,01,16.20
2020,08,13,12,02,16.20
2020,08,13,12,03,16.10
2020,08,13,12,04,16.10
2020,08,13,12,05,16.10
2020,08,13,12,06,16.20
2020,08,13,12,07,16.20
2020,08,13,12,08,16.20
2020,08,13,12,09,16.30
2020,08,13,12,10,16.30
2020,08,13,12,11,16.30
2020,08,13,12,12,16.40
2020,08,13,12,13,16.40
2020,08,13,12,14,16.40
2020,08,13,12,15,16.50
2020,08,13,12,16,16.50
2020,08,13,12,17,16.60
2020,08,13,12,18,16.60
2020,08,13,12,19,16.60
2020,08,13,12,20,16.60
2020,08,13,12,21,16.70
2020,08,13,12,22,16.70
2020,08,13,12,23,16.70
2020,08,13,12,24,16.70
2020,08,13,12,25,16.70
2020,08,13,12,26,16.70
2020,08,13,12,27,16.70
2020,08,13,12,28,16.70
2020,08,13,12,29,16.70
2020,08,13,12,30,16.70
2020,08,13,12,31,16.70
2020,08,13,12,32,16.70
2020,08,13,12,33,16.70
2020,08,13,12,34,16.80
2020,08,13,12,35,16.80
2020,08,13,12,36,16.80
2020,08,13,12,37,16.90
2020,08,13,12,38,16.90
2020,08,13,12,39,16.90
2020,08,13,12,40,16.90
2020,08,13,12,41,16.90
2020,08,13,12,42,16.90
2020,08,13,12,43,17.00
2020,08,13,12,44,17.10
2020,08,13,12,45,17.10
2020,08,13,12,46,17.10
2020,08,13,12,47,17.20
2020,08,13,12,48,17.20
2020,08,13,12,49,17.30
2020,08,13,12,50,17.30
2020,08,13,12,51,17.30
2020,08,13,12,52,17.30
2020,08,13,12,53,17.30
2020,08,13,12,54,17.20
2020,08,13,12,55,17.20
2020,08,13,12,56,17.20
2020,08,13,12,57,17.20
2020,08,13,12,58,17.20
2020,08,13,12,59,17.20
2020,08,13,13,00,17.20
2020,08,13,13,01,17.20
2020,08,13,13,02,17.20
2020,08,13,13,03,17.20
2020,08,13,13,04,17.20
2020,08,13,13,05,17.30
2020,08,13,13,06,17.30
2020,08,13,13,07,17.30
2020,08,13,13,08,17.30
2020,08,13,13,09,17.30
2020,08,13,13,10,17.30
2020,08,13,13,11,17.40
2020,08,13,13,12,17.50
2020,08,13,13,13,17.50
2020,08,13,13,14,17.50
2020,08,13,13,15,17.60
2020,08,13,13,16,17.60
2020,08,13,13,17,17.60
2020,08,13,13,18,17.50
2020,08,13,13,19,17.50
2020,08,13,13,20,17.50
2020,08,13,13,21,17.50
2020,08,13,13,22,17.40
2020,08,13,13,23,17.40
2020,08,13,13,24,17.50
2020,08,13,13,25,17.50
2020,08,13,13,26,17.50
2020,08,13,13,27,17.50
2020,08,13,13,28,17.50
2020,08,13,13,29,17.50
2020,08,13,13,30,17.50
2020,08,13,13,31,17.60
2020,08,13,13,32,17.60
2020,08,13,13,33,17.60
2020,08,13,13,34,17.60
2020,08,13,13,35,17.60
2020,08,13,13,36,17.60
2020,08,13,13,37,17.60
2020,08,13,13,38,17.60
2020,08,13,13,39,17.70
2020,08,13,13,40,17.70
2020,08,13,13,41,17.70
2020,08,13,13,42,17.70
2020,08,13,13,43,17.70
2020,08,13,13,44,17.70
2020,08,13,13,45,17.70
2020,08,13,13,46,17.70
2020,08,13,13,47,17.80
2020,08,13,13,48,17.80
2020,08,13,13,49,17.80
2020,08,13,13,50,17.80
2020,08,13,13,51,17.80
2020,08,13,13,52,17.80
2020,08,13,13,53,17.80
2020,08,13,13,54,17.80
2020,08,13,13,55,17.80
2020,08,13,13,56,17.80
2020,08,13,13,57,17.80
2020,08,13,13,58,17.80
2020,08,13,13,59,17.90
2020,08,13,14,00,17.90
2020,08,13,14,01,17.90
2020,08,13,14,02,17.90
2020,08,13,14,03,17.90
2020,08,13,14,04,18.00
2020,08,13,14,05,18.00
2020,08,13,14,06,18.00
2020,08,13,14,07,18.00
2020,08,13,14,08,18.00
2020,08,13,14,09,18.00
2020,08,13,14,10,18.00
2020,08,13,14,11,18.00
2020,08,13,14,12,18.00
2020,08,13,14,13,18.00
2020,08,13,14,14,18.00
2020,08,13,14,15,18.10
2020,08,13,14,16,18.10
2020,08,13,14,17,18.10
2020,08,13,14,18,18.10
2020,08,13,14,19,18.10
2020,08,13,14,20,18.10
2020,08,13,14,21,18.10
2020,08,13,14,22,18.10
2020,08,13,14,23,18.10
2020,08,13,14,24,18.10
2020,08,13,14,25,18.10
2020,08,13,14,26,18.10
2020,08,13,14,27,18.20
2020,08,13,14,28,18.20
2020,08,13,14,29,18.20
2020,08,13,14,30,18.10
2020,08,13,14,31,18.10
2020,08,13,14,32,18.00
2020,08,13,14,33,18.00
2020,08,13,14,34,18.00
2020,08,13,14,35,18.00
2020,08,13,14,36,17.90
2020,08,13,14,37,18.00
2020,08,13,14,38,18.00
2020,08,13,14,39,18.00
2020,08,13,14,40,18.00
2020,08,13,14,41,18.00
2020,08,13,14,42,17.90
2020,08,13,14,43,17.90
2020,08,13,14,44,17.90
2020,08,13,14,45,17.90
2020,08,13,14,46,17.90
2020,08,13,14,47,18.00
2020,08,13,14,48,18.00
2020,08,13,14,49,18.10
2020,08,13,14,50,18.10
2020,08,13,14,51,18.10
2020,08,13,14,52,18.10
2020,08,13,14,53,18.10
2020,08,13,14,54,18.10
2020,08,13,14,55,18.10
2020,08,13,14,56,18.20
2020,08,13,14,57,18.20
2020,08,13,14,58,18.20
2020,08,13,14,59,18.10
2020,08,13,15,00,18.10
2020,08,13,15,01,18.10
2020,08,13,15,02,18.00
2020,08,13,15,03,18.00
2020,08,13,15,04,18.00
2020,08,13,15,05,18.00
2020,08,13,15,06,18.00
2020,08,13,15,07,18.10
2020,08,13,15,08,18.10
2020,08,13,15,09,18.20
2020,08,13,15,10,18.20
2020,08,13,15,11,18.30
2020,08,13,15,12,18.30
2020,08,13,15,13,18.30
2020,08,13,15,14,18.30
2020,08,13,15,15,18.20
2020,08,13,15,16,18.20
2020,08,13,15,17,18.20
2020,08,13,15,18,18.20
2020,08,13,15,19,18.20
2020,08,13,15,20,18.20
2020,08,13,15,21,18.20
2020,08,13,15,22,18.20
2020,08,13,15,23,18.30
2020,08,13,15,24,18.30
2020,08,13,15,25,18.30
2020,08,13,15,26,18.30
2020,08,13,15,27,18.30
2020,08,13,15,28,18.30
2020,08,13,15,29,18.30
2020,08,13,15,30,18.30
2020,08,13,15,31,18.20
2020,08,13,15,32,18.20
2020,08,13,15,33,18.10
2020,08,13,15,34,18.10
2020,08,13,15,35,18.10
2020,08,13,15,36,18.10
2020,08,13,15,37,18.10
2020,08,13,15,38,18.20
2020,08,13,15,39,18.20
2020,08,13,15,40,18.30
2020,08,13,15,41,18.30
2020,08,13,15,42,18.40
2020,08,13,15,43,18.50
2020,08,13,15,44,18.50
2020,08,13,15,45,18.60
2020,08,13,15,46,18.70
2020,08,13,15,47,18.70
2020,08,13,15,48,18.80
2020,08,13,15,49,18.80
2020,08,13,15,50,18.80
2020,08,13,15,51,18.90
2020,08,13,15,52,18.90
2020,08,13,15,53,18.90
2020,08,13,15,54,18.90
2020,08,13,15,55,18.90
2020,08,13,15,56,18.90
2020,08,13,15,57,18.90
2020,08,13,15,58,18.90
2020,08,13,15,59,18.90
2020,08,13,16,00,18.90
2020,08,13,16,01,18.90
2020,08,13,16,02,18.90
2020,08,13,16,03,18.90
2020,08,13,16,04,18.90
2020,08,13,16,05,18.90
2020,08,13,16,06,18.90
2020,08,13,16,07,18.90
2020,08,13,16,08,19.00
2020,08,13,16,09,19.10
2020,08,13,16,10,19.10
2020,08,13,16,11,19.10
2020,08,13,16,12,19.10
2020,08,13,16,13,19.00
2020,08,13,16,14,19.00
2020,08,13,16,15,18.90
2020,08,13,16,16,18.90
2020,08,13,16,17,18.90
2020,08,13,16,18,18.90
2020,08,13,16,19,18.90
2020,08,13,16,20,18.90
2020,08,13,16,21,18.90
2020,08,13,16,22,18.80
2020,08,13,16,23,18.80
2020,08,13,16,24,18.80
2020,08,13,16,25,18.70
2020,08,13,16,26,18.70
2020,08,13,16,27,18.60
2020,08,13,16,28,18.50
2020,08,13,16,29,18.50
2020,08,13,16,30,18.40
2020,08,13,16,31,18.40
2020,08,13,16,32,18.30
2020,08,13,16,33,18.30
2020,08,13,16,34,18.20
2020,08,13,16,35,18.20
2020,08,13,16,36,18.20
2020,08,13,16,37,18.20
2020,08,13,16,38,18.20
2020,08,13,16,39,18.30
2020,08,13,16,40,18.40
2020,08,13,16,41,18.40
2020,08,13,16,42,18.50
2020,08,13,16,43,18.60
2020,08,13,16,44,18.60
2020,08,13,16,45,18.60
2020,08,13,16,46,18.60
2020,08,13,16,47,18.50
2020,08,13,16,48,18.50
2020,08,13,16,49,18.40
2020,08,13,16,50,18.40
2020,08,13,16,51,18.40
2020,08,13,16,52,18.30
2020,08,13,16,53,18.30
2020,08,13,16,54,18.20
2020,08,13,16,55,18.20
2020,08,13,16,56,18.10
2020,08,13,16,57,18.10
2020,08,13,16,58,18.10
2020,08,13,16,59,18.10
2020,08,13,17,00,18.10
2020,08,13,17,01,18.10
2020,08,13,17,02,18.10
2020,08,13,17,03,18.20
2020,08,13,17,04,18.20
2020,08,13,17,05,18.20
2020,08,13,17,06,18.20
2020,08,13,17,07,18.10
2020,08,13,17,08,18.10
2020,08,13,17,09,18.10
2020,08,13,17,10,18.00
2020,08,13,17,11,18.00
2020,08,13,17,12,18.00
2020,08,13,17,13,18.00
2020,08,13,17,14,18.00
2020,08,13,17,15,18.00
2020,08,13,17,16,18.00
2020,08,13,17,17,18.00
2020,08,13,17,18,18.10
2020,08,13,17,19,18.10